Regional Weather Roundup
Issued by NWS Green Bay, WI

Home | Current Version | Previous Version | Text Only | Print | Product List | Glossary On
Versions: 1 2 3 4 5 6 7 8 9 10 11 12 13 14 15 16 17 18 19 20 21 22 23 24 25 26 27 28 29 30 31 32 33 34 35 36 37 38 39 40 41 42 43 44 45 46 47 48 49 50
000
ASUS43 KGRB 140910
RWRGRB

NORTH-CENTRAL AND NORTHEAST WISCONSIN REGIONAL WEATHER ROUNDUP
NATIONAL WEATHER SERVICE GREEN BAY WI
400 AM CDT MON JUL 14 2014

WIZ005-009-010>012-018-019-141000-
NORTH CENTRAL WISCONSIN

CITY           SKY/WX    TMP DP  RH WIND       PRES   REMARKS
IRONWOOD       PTCLDY    50  45  81 W6        29.81R
MANITOWISH WTR CLOUDY    51  51  98 CALM      29.83S
ARBOR VITAE    MOCLDY    56  48  75 CALM      29.84S
EAGLE RIVER    CLOUDY    52  52  99 CALM      29.84R
LAND O LAKES   MOCLDY    46  46  97 CALM      29.84S
RHINELANDER    CLOUDY    54  52  93 W3        29.85R
PHILLIPS       CLEAR     51  50  96 W3        29.84S
ANTIGO         PTCLDY    49  48  96 CALM      29.85S
TOMAHAWK       CLOUDY    53  50  91 CALM      29.84F
MERRILL        CLOUDY    51  51  99 CALM      29.84S
$$

WIZ013-073-141000-
NORTHEAST WISCONSIN

CITY           SKY/WX    TMP DP  RH WIND       PRES   REMARKS
IRON MOUNTAIN  CLOUDY    56  49  77 CALM      29.81S
MARINETTE      PTCLDY    55  48  76 W3        29.81F
OCONTO         CLEAR     54  50  87 W3        29.82S
$$

WIZ017-030-035>037-045-141000-
CENTRAL WISCONSIN

CITY           SKY/WX    TMP DP  RH WIND       PRES   REMARKS
MEDFORD        CLOUDY    54  51  92 W3        29.85S
WAUSAU         CLEAR     54  51  90 CALM      29.83S
MOSINEE        CLEAR     52  52 100 CALM      29.86S
MARSHFIELD     PTCLDY    53  50  89 SW5       29.85S
WISC RAPIDS    CLEAR     51  50  96 CALM      29.86F FOG
STEVENS POINT  CLEAR     51  50  95 CALM      29.85F
WAUPACA        CLEAR     54  51  90 CALM      29.85F
SHAWANO        CLEAR     53  51  90 SW3       29.84S
CLINTONVILLE   CLEAR     52  48  87 CALM      29.84S
$$

WIZ038-039-048-051-141000-
FOX VALLEY

CITY           SKY/WX    TMP DP  RH WIND       PRES   REMARKS
NWS GREEN BAY  CLEAR     57  52  83 CALM      29.84S
APPLETON       CLEAR     54  50  87 W7        29.85S
OSHKOSH        MOCLDY    60  50  69 CALM      29.85S
FOND DU LAC    PTCLDY    58  52  80 SW7       29.86F
$$

WIZ022-050-052-141000-
EAST CENTRAL WISCONSIN

CITY           SKY/WX    TMP DP  RH WIND       PRES   REMARKS
STURGEON BAY   CLOUDY    59  50  72 W3        29.83S
MANITOWOC      CLEAR     59  51  75 W6        29.84S
SHEBOYGAN      CLEAR     54  51  90 SW5       29.85F
$$

LMZ563-521-522-541>543-141000-
LAKESHORE

STATION/POSITION TIME  TEMP    WIND        PRES    VSBY  WAVE
                       AIR SEA DIR/SP/G                  HT/PER
                 (UTC) (F)     (DEG/KT/KT) (MB)    (MI)  (FT/S)
SHEBOYGAN LKSHOR 0900   64     240/  7/  9 1010.6F
KEWAUNEE LKSHORE 0900   62     260/  6/  9 1010.8S
ALGOMA MARINA    0800          270/  7/  9   N/A
NORTHPORT PIER   0900   61     230/  2/  5 1009.5S
N MID LAKE BUOY  0900   61 60  240/ 10/ 10 1008.9R         1
MENOMINEE LKSHOR 0900   61     270/  5/  7 1010.3F
$$


USA.gov is the U.S. government's official web portal to all federal, state and local government web resources and services.